This is the latest recevied weather packets stored in our database for station/object KG5MMT-15. If no packets are shown the sender has not sent any weather packets the latest 10 day(s).
| Time | Temp. | Humidity | Pressure | Rain* | Wind** | Luminosity | Snow |
|---|---|---|---|---|---|---|---|
| 1787953979 | 24.44° C | 33% | 0 hPa | 0.25 mm | - | - | - |
| 1787953679 | 23.89° C | 35% | 0 hPa | 0.25 mm | - | - | - |
| 1787953379 | 23.89° C | 34% | 0 hPa | 0.25 mm | - | - | - |
| 1787953079 | 23.33° C | 39% | 0 hPa | 0.25 mm | - | - | - |
| 1787952779 | 22.78° C | 36% | 0 hPa | 0.25 mm | - | - | - |
| 1787952479 | 22.22° C | 37% | 0 hPa | 0.25 mm | - | - | - |
| 1787952179 | 21.11° C | 46% | 0 hPa | 0.76 mm | - | - | - |
| 1787951879 | 16.67° C | 84% | 0 hPa | 1.02 mm | - | - | - |
| 1787951579 | 15.56° C | 89% | 0 hPa | 2.29 mm | - | - | - |
| 1787951279 | 15.56° C | 91% | 0 hPa | 2.29 mm | - | - | - |
| 1787950979 | 15.56° C | 89% | 0 hPa | 2.29 mm | - | - | - |
| 1787950679 | 15° C | 88% | 0 hPa | 2.54 mm | - | - | - |
| 1787950379 | 15° C | 87% | 0 hPa | 2.29 mm | - | - | - |
| 1787950079 | 15° C | 88% | 0 hPa | 2.79 mm | - | - | - |
| 1787949779 | 14.44° C | 87% | 0 hPa | 3.81 mm | - | - | - |
| 1787949479 | 14.44° C | 87% | 0 hPa | 4.32 mm | - | - | - |
| 1787949179 | 14.44° C | 88% | 0 hPa | 5.08 mm | - | - | - |
| 1787948879 | 13.89° C | 89% | 0 hPa | 5.84 mm | - | - | - |
| 1787948579 | 14.44° C | 86% | 0 hPa | 5.33 mm | - | - | - |
| 1787948280 | 15° C | 82% | 0 hPa | 5.08 mm | - | - | - |
| 1787947979 | 17.22° C | 78% | 0 hPa | 3.81 mm | - | - | - |
| 1787947679 | 16.11° C | 76% | 0 hPa | 3.81 mm | - | - | - |
| 1787947379 | 17.22° C | 72% | 0 hPa | 3.81 mm | - | - | - |
| 1787947079 | 18.89° C | 66% | 0 hPa | 3.56 mm | - | - | - |
| 1787946779 | 17.22° C | 74% | 0 hPa | 3.56 mm | - | - | - |
* Rain latest hour (hover to see other rain measurements)
** Current wind speed in m/s (hover to see current wind gust speed)